STARLINK-11701

Satellite information

Favourite Embed

Satellite Type and Status

PAYLOADIN ORBIT

Key statistics

Satellite STARLINK-11701 at a glance.

Uptime

228

Days in orbit

Revolutions

≈ 15.7

Per day

Orbit

LEO

Low Earth Orbit

Inclination

43.0

Latest

Satellite identification and parameters

Extended collection of information and parameters for STARLINK-11701.

Object identification

Identified? True

Debris? False

Object name: STARLINK-11701

International designator: 2025-089K

Object number (NORAD): 63760

Object ID (CCSDS): 63760

Country: UNITED STATES OF AMERICA (US)

Current information (Y/N): Y

RCS size: LARGE

Orbital parameters

Period: 91.665 minutes

Inclination: 42.9992 deg

SMA: 6734.371 km

Apoapsis: 357.012 km

Periapsis: 355.459 km

RAAN: 102.1595 deg

Eccentricy: 0.00011531

Argument of periapsis: 293.3962 deg

Mean anomaly: 66.6784 deg

Mean motion: 15.70931416 rev/day

Mean motion (dot): 0.00259342 rev/day2

B* drag term: 0.0019546751 1/REarth

Two-line elements (TLE)

Creation date: Dec. 12, 2025, 3:16 a.m.

Reference frame: TEME

Reference center: EARTH

Epoch: Dec. 11, 2025, 5:12 p.m. UTC

TLE line 0: 0 STARLINK-11701

TLE line 1: 1 63760U 25089K 25345.71706289 .00259342 00000-0 19547-2 0 9998

TLE line 2: 2 63760 42.9992 102.1595 0001153 293.3962 66.6784 15.70931416 36302

Live tracking on map

Real-time ground track for satellite STARLINK-11701.

In-orbit conjunctions

There are no conjunctions computed for STARLINK-11701, at the moment. Check back to stay up to date, as we update our databases every day.

Go to all conjunctions

Associated space launch

A batch of 23 satellites for the Starlink mega-constellation - SpaceX's project for space-based Internet communication system.

STARLINK-11701 was lifted into orbit during the mission ‘Falcon 9 Block 5 | Starlink Group 12-10’, on board a Falcon 9 space rocket.

The launch took place on April 29, 2025, 2:34 a.m. from Launch Complex 39A.

For more information about the launch, click the button.

Launch to space Falcon 9 Block 5 | Starlink Group 12-10
Falcon 9 Block 5 | Starlink Group 12-10

Agency: SpaceX

Status: Launch Successful

Launch date: April 29, 2025, 2:34 a.m. UTC

Rocket: Falcon 9

Launch pad: Launch Complex 39A

Location: Kennedy Space Center, FL, USA

...

Latest news about this satellite

News about space launch
Rocket Report: Starbase the city is coming soon; Alpha remains in beta

"A commitment to keeping on with the Moon mission is the key requirement."

News about space launch
Launch Roundup: Starlink missions fill launch manifest, Biomass and Alpha launch

This week’s schedule includes up to six Starlink launches from Florida and California. Arianespace launched… The post Launch Roundup: Starlink missions fill launch manifest, Biomass and Alpha launch appeared first on NASASpaceFlight.com.

News about space launch
Live coverage: SpaceX to launch 23 Starlink satellites on Falcon 9 rocket from the Kennedy Space Center

The mission is the second planned Falcon 9 launch for SpaceX in the span of six hours. Liftoff from pad 39A at NASA’s Kennedy Space Center is targeting 10:34 p.m. EDT (0234 UTC).


Newsletter sign-up

Weekly statistics, charts and insights to help you stay on top of the space industry.